Weather History for Homestead AFB, FL

Change the Weather History Date:

Thursday, March 7, 2013

  Actual Average Record
Temperature  
Mean Temperature 58 °F -  
Max Temperature 70 °F 79 °F 91 °F (2003)
Min Temperature 46 °F 58 °F 40 °F (1940)
Degree Days  
Heating Degree Days 7    
Growing Degree Days 8 (Base 50)    
Moisture  
Dew Point 41 °F    
Average Humidity 56    
Maximum Humidity 88    
Minimum Humidity 31    
Precipitation  
Precipitation 0.00 in - - ()
Sea Level Pressure  
Sea Level Pressure 30.16 in    
Wind  
Wind Speed 8 mph (NW)    
Max Wind Speed 14 mph    
Max Gust Speed -    
Visibility 10 miles    
Events      
Averages and records for this station are not official NWS values.
T = Trace of Precipitation, MM = Missing Value Source: NWS Daily Summary

Daily Weather History Graph

Daily Weather History Graph

Search for Another Location

Airport:

Trip Planner

Search our weather history database for the weather conditions in past years. The results will help you decide how hot, cold, wet, or windy it might be!

Date:

Astronomy

Mar. 07, 2013 Rise Set
Actual Time 6:38 AM EST 6:26 PM EST
Civil Twilight 6:15 AM EST 6:49 PM EST
Nautical Twilight 5:49 AM EST 7:16 PM EST
Astronomical Twilight 5:22 AM EST 7:42 PM EST
Moon 3:15 AM EST (3/7) 2:32 PM EST (3/7)
Length of Visible Light 12h 34m
Length of Day
11h 48m
Waning Crescent, 20% of the Moon is Illuminated
Mar 7
Waning Crescent
Mar 11
New
Mar 19
First Quarter
Mar 27
Full
Apr 3
Last Quarter

Hourly Weather History & Observations

Time (EST) Temp. Windchill Dew Point Humidity Pressure Visibility Wind Dir Wind Speed Gust Speed Precip Events Conditions
12:58 AM 51.8 °F - 41.0 °F 67% 30.13 in 10.0 mi NW 10.4 mph - N/A   Clear
1:58 AM 51.8 °F - 41.0 °F 67% 30.13 in 10.0 mi NW 9.2 mph - N/A   Clear
2:58 AM 50.0 °F - 41.0 °F 71% 30.11 in 10.0 mi NW 9.2 mph - N/A   Clear
3:58 AM 50.0 °F - 39.2 °F 66% 30.10 in 10.0 mi NW 8.1 mph - N/A   Clear
4:58 AM 46.4 °F 43.5 °F 39.2 °F 76% 30.12 in 10.0 mi West 5.8 mph - N/A   Clear
5:58 AM 46.4 °F 42.9 °F 41.0 °F 81% 30.14 in 10.0 mi NW 6.9 mph - N/A   Clear
6:58 AM 46.4 °F 42.4 °F 37.4 °F 71% 30.16 in 10.0 mi NNW 8.1 mph - N/A   Clear
7:58 AM 51.8 °F - 33.8 °F 50% 30.19 in 10.0 mi NNW 13.8 mph - N/A   Clear
8:58 AM 55.4 °F - 35.6 °F 47% 30.19 in 10.0 mi NNW 12.7 mph - N/A   Clear
9:58 AM 59.0 °F - 37.4 °F 45% 30.20 in 10.0 mi North 10.4 mph - N/A   Clear
10:58 AM 63.0 °F - 37.2 °F 38% 30.20 in 10.0 mi NNW 5.8 mph - N/A   Clear
11:58 AM 65.5 °F - 37.2 °F 35% 30.20 in 10.0 mi Variable 4.6 mph - N/A   Clear
12:58 PM 67.3 °F - 36.1 °F 32% 30.17 in 10.0 mi Variable 3.5 mph - N/A   Clear
1:18 PM 68.0 °F - 37.4 °F 33% 30.15 in 10.0 mi Variable 1.2 mph - N/A   Light Drizzle
1:22 PM 69.8 °F - 37.4 °F 31% 30.14 in 10.0 mi Variable 2.3 mph - N/A   Clear
1:58 PM 69.8 °F - 38.8 °F 32% 30.14 in 10.0 mi Variable 3.5 mph - N/A   Clear
2:58 PM 70.3 °F - 38.8 °F 32% 30.13 in 10.0 mi Variable 4.6 mph - N/A   Clear
3:58 PM 70.5 °F - 41.0 °F 34% 30.13 in 10.0 mi WNW 5.8 mph - N/A   Clear
4:58 PM 70.0 °F - 40.3 °F 34% 30.14 in 10.0 mi North 5.8 mph - N/A   Clear
5:58 PM 68.0 °F - 41.0 °F 37% 30.15 in 10.0 mi NW 5.8 mph - N/A   Clear
6:58 PM 62.2 °F - 48.6 °F 61% 30.17 in 10.0 mi South 5.8 mph - N/A   Clear
7:58 PM 57.9 °F - 50.9 °F 77% 30.19 in 10.0 mi WSW 3.5 mph - N/A   Clear
8:58 PM 55.2 °F - 51.8 °F 88% 30.20 in 10.0 mi West 5.8 mph - N/A   Clear
9:58 PM 55.2 °F - 48.2 °F 77% 30.21 in 10.0 mi WNW 4.6 mph - N/A   Clear
10:58 PM 53.8 °F - 48.6 °F 82% 30.21 in 10.0 mi NW 4.6 mph - N/A   Clear
11:58 PM 53.4 °F - 47.7 °F 81% 30.20 in 10.0 mi West 3.5 mph - N/A   Clear